TimeCDT,TemperatureF,Dew PointF,Humidity,Sea Level PressureIn,VisibilityMPH,Wind Direction,Wind SpeedMPH,Gust SpeedMPH,PrecipitationIn,Events,Conditions,WindDirDegrees,DateUTC
12:53 AM,72.0,70.0,93,29.95,9.0,Calm,Calm,-,N/A,,Clear,0,2013-07-23 05:53:00
1:53 AM,73.0,71.1,93,29.95,8.0,Calm,Calm,-,N/A,,Clear,0,2013-07-23 06:53:00
2:53 AM,73.0,72.0,96,29.94,7.0,SSW,3.5,-,N/A,,Clear,210,2013-07-23 07:53:00
3:53 AM,75.0,73.9,96,29.94,9.0,SSW,4.6,-,N/A,,Clear,210,2013-07-23 08:53:00
4:53 AM,75.0,73.9,96,29.94,8.0,SSW,5.8,-,N/A,,Clear,200,2013-07-23 09:53:00
5:53 AM,75.9,73.9,94,29.94,8.0,SSW,8.1,-,N/A,,Clear,200,2013-07-23 10:53:00
6:53 AM,77.0,75.0,94,29.95,7.0,SSW,8.1,-,N/A,,Clear,200,2013-07-23 11:53:00
7:53 AM,78.1,75.9,93,29.97,9.0,SW,9.2,-,N/A,,Clear,220,2013-07-23 12:53:00
8:53 AM,81.0,75.9,85,29.98,10.0,SW,11.5,-,N/A,,Clear,220,2013-07-23 13:53:00
9:53 AM,84.9,77.0,77,29.97,10.0,SW,6.9,-,N/A,,Partly Cloudy,230,2013-07-23 14:53:00
10:53 AM,84.0,75.0,74,29.96,10.0,WSW,6.9,-,N/A,,Mostly Cloudy,240,2013-07-23 15:53:00
11:53 AM,84.9,75.0,72,29.95,10.0,SW,9.2,19.6,N/A,,Scattered Clouds,230,2013-07-23 16:53:00
12:15 PM,73.4,69.8,88,30.02,1.5,NNE,11.5,26.5,0.15,Rain,Light Rain,20,2013-07-23 17:15:00
12:20 PM,71.6,69.8,94,30.03,0.5,NNW,8.1,24.2,0.41,Fog-Rain,Heavy Rain,340,2013-07-23 17:20:00
12:28 PM,69.8,69.8,100,30.02,0.2,NE,16.1,24.2,0.72,Fog-Rain,Heavy Rain,40,2013-07-23 17:28:00
12:35 PM,69.8,69.8,100,30.02,0.5,NNE,10.4,21.9,0.86,Fog-Rain,Heavy Rain,30,2013-07-23 17:35:00
12:45 PM,69.8,69.8,100,30.02,1.0,Calm,Calm,-,0.98,Rain,Heavy Rain,0,2013-07-23 17:45:00
12:53 PM,69.1,68.0,96,30.01,1.5,NE,5.8,-,1.03,Rain,Heavy Rain,40,2013-07-23 17:53:00
1:00 PM,69.8,68.0,94,30.02,3.0,North,4.6,-,0.01,Rain,Rain,10,2013-07-23 18:00:00
1:04 PM,69.8,68.0,94,30.02,1.5,North,4.6,-,0.07,Rain,Heavy Rain,10,2013-07-23 18:04:00
1:16 PM,69.8,68.0,94,30.00,3.0,East,4.6,-,0.12,Rain,Light Rain,80,2013-07-23 18:16:00
1:53 PM,72.0,69.1,91,29.95,8.0,SSE,5.8,-,0.15,Rain,Light Rain,150,2013-07-23 18:53:00
2:53 PM,75.9,72.0,87,29.92,10.0,SSW,10.4,-,0.00,,Clear,200,2013-07-23 19:53:00
3:53 PM,80.1,73.9,81,29.89,10.0,SSW,8.1,-,N/A,,Clear,210,2013-07-23 20:53:00
4:53 PM,86.0,75.9,72,29.87,10.0,SSW,9.2,-,N/A,,Clear,210,2013-07-23 21:53:00
5:53 PM,84.9,75.9,74,29.87,10.0,SSW,8.1,-,N/A,,Clear,210,2013-07-23 22:53:00
6:53 PM,82.9,77.0,82,29.88,10.0,SSW,6.9,-,N/A,,Clear,200,2013-07-23 23:53:00
7:53 PM,80.1,77.0,90,29.86,10.0,SSW,4.6,-,N/A,,Clear,200,2013-07-24 00:53:00
8:53 PM,78.1,75.9,93,29.87,10.0,South,3.5,-,N/A,,Clear,190,2013-07-24 01:53:00
9:53 PM,78.1,75.9,93,29.88,10.0,SSW,3.5,-,N/A,,Clear,200,2013-07-24 02:53:00
10:53 PM,78.1,75.9,93,29.89,10.0,Calm,Calm,-,N/A,,Clear,0,2013-07-24 03:53:00
11:53 PM,78.1,75.9,93,29.90,10.0,Calm,Calm,-,N/A,,Mostly Cloudy,0,2013-07-24 04:53:00